This is the latest recevied weather packets stored in our database for station/object W3JGB. If no packets are shown the sender has not sent any weather packets the latest 1 day(s).
| Time | Temp. | Humidity | Pressure | Rain* | Wind** | Luminosity | Snow |
|---|---|---|---|---|---|---|---|
| 1778025349 | 18.89° C | 77% | 1007.1 hPa | 0 mm | 0 m/s | 3 W/m² | - |
| 1778025045 | 18.89° C | 75% | 1007 hPa | 0 mm | 0 m/s | 6 W/m² | - |
| 1778024742 | 19.44° C | 75% | 1006.9 hPa | 0 mm | 0 m/s | 7 W/m² | - |
| 1778024439 | 19.44° C | 75% | 1007 hPa | 0 mm | 0 m/s | 9 W/m² | - |
| 1778024136 | 20° C | 73% | 1006.9 hPa | 0 mm | 0 m/s | 12 W/m² | - |
| 1778023834 | 20° C | 73% | 1006.9 hPa | 0 mm | 0 m/s | 15 W/m² | - |
| 1778023532 | 20° C | 72% | 1006.8 hPa | 0 mm | 0 m/s | 18 W/m² | - |
| 1778023229 | 20.56° C | 71% | 1006.6 hPa | 0 mm | 0 m/s | 24 W/m² | - |
| 1778022926 | 20.56° C | 70% | 1006.7 hPa | 0 mm | 0 m/s | 26 W/m² | - |
| 1778022624 | 20.56° C | 70% | 1006.8 hPa | 0 mm | 0.45 m/s, 357° | 22 W/m² | - |
| 1778022321 | 20.56° C | 70% | 1006.7 hPa | 0 mm | 0 m/s | 24 W/m² | - |
| 1778022018 | 20.56° C | 67% | 1006.7 hPa | 0 mm | 0.45 m/s, 359° | 32 W/m² | - |
| 1778021715 | 21.11° C | 66% | 1006.7 hPa | 0 mm | 0.89 m/s, 28° | 37 W/m² | - |
| 1778021411 | 21.11° C | 66% | 1006.7 hPa | 0 mm | 0.45 m/s, 5° | 42 W/m² | - |
| 1778021108 | 21.67° C | 65% | 1006.4 hPa | 0 mm | 0 m/s | 48 W/m² | - |
| 1778020805 | 21.67° C | 62% | 1006.5 hPa | 0 mm | 0 m/s | 62 W/m² | - |
| 1778020502 | 22.22° C | 61% | 1006.7 hPa | 0 mm | 0.89 m/s, 311° | 78 W/m² | - |
| 1778020198 | 22.78° C | 58% | 1006.6 hPa | 0 mm | 0.89 m/s, 81° | 94 W/m² | - |
| 1778019895 | 22.78° C | 53% | 1006.5 hPa | 0 mm | 0.89 m/s, 30° | 101 W/m² | - |
| 1778019590 | 22.78° C | 54% | 1006.3 hPa | 0 mm | 0 m/s | 115 W/m² | - |
| 1778019288 | 22.78° C | 54% | 1006.7 hPa | 0 mm | 2.24 m/s, 310° | 99 W/m² | - |
| 1778018985 | 22.78° C | 55% | 1006.8 hPa | 0 mm | 0.45 m/s, 35° | 71 W/m² | - |
| 1778018682 | 22.78° C | 53% | 1006.6 hPa | 0 mm | 0.45 m/s, 331° | 69 W/m² | - |
| 1778018379 | 22.78° C | 52% | 1006.4 hPa | 0 mm | 0 m/s | 63 W/m² | - |
| 1778018077 | 22.78° C | 53% | 1006.4 hPa | 0 mm | 0.89 m/s, 338° | 61 W/m² | - |
* Rain latest hour (hover to see other rain measurements)
** Current wind speed in m/s (hover to see current wind gust speed)